Year,Month,Day,Hour,Minute,Value (Times are PST for temperature in C)
2013,03,25,00,00,6.30
2013,03,25,00,01,6.30
2013,03,25,00,02,6.40
2013,03,25,00,03,6.40
2013,03,25,00,04,6.40
2013,03,25,00,05,6.40
2013,03,25,00,06,6.60
2013,03,25,00,07,6.60
2013,03,25,00,08,6.60
2013,03,25,00,09,6.60
2013,03,25,00,10,6.60
2013,03,25,00,11,6.60
2013,03,25,00,12,6.60
2013,03,25,00,13,6.60
2013,03,25,00,14,6.60
2013,03,25,00,15,6.60
2013,03,25,00,16,6.60
2013,03,25,00,17,6.60
2013,03,25,00,18,6.60
2013,03,25,00,19,6.60
2013,03,25,00,20,6.50
2013,03,25,00,21,6.40
2013,03,25,00,22,6.40
2013,03,25,00,23,6.40
2013,03,25,00,24,6.40
2013,03,25,00,25,6.50
2013,03,25,00,26,6.60
2013,03,25,00,27,6.60
2013,03,25,00,28,6.60
2013,03,25,00,29,6.60
2013,03,25,00,30,6.60
2013,03,25,00,31,6.60
2013,03,25,00,32,6.60
2013,03,25,00,33,6.60
2013,03,25,00,34,6.60
2013,03,25,00,35,6.60
2013,03,25,00,36,6.60
2013,03,25,00,37,6.60
2013,03,25,00,38,6.60
2013,03,25,00,39,6.60
2013,03,25,00,40,6.60
2013,03,25,00,41,6.60
2013,03,25,00,42,6.60
2013,03,25,00,43,6.60
2013,03,25,00,44,6.40
2013,03,25,00,45,6.40
2013,03,25,00,46,6.40
2013,03,25,00,47,6.40
2013,03,25,00,48,6.40
2013,03,25,00,49,6.40
2013,03,25,00,50,6.40
2013,03,25,00,51,6.40
2013,03,25,00,52,6.40
2013,03,25,00,53,6.40
2013,03,25,00,54,6.40
2013,03,25,00,55,6.40
2013,03,25,00,56,6.40
2013,03,25,00,57,6.40
2013,03,25,00,58,6.40
2013,03,25,00,59,6.40
2013,03,25,01,00,6.40
2013,03,25,01,01,6.40
2013,03,25,01,02,6.40
2013,03,25,01,03,6.40
2013,03,25,01,04,6.40
2013,03,25,01,05,6.40
2013,03,25,01,06,6.40
2013,03,25,01,07,6.30
2013,03,25,01,08,6.30
2013,03,25,01,09,6.30
2013,03,25,01,10,6.30
2013,03,25,01,11,6.30
2013,03,25,01,12,6.30
2013,03,25,01,13,6.20
2013,03,25,01,14,6.20
2013,03,25,01,15,6.20
2013,03,25,01,16,6.20
2013,03,25,01,17,6.20
2013,03,25,01,18,6.20
2013,03,25,01,19,6.20
2013,03,25,01,20,6.20
2013,03,25,01,21,6.20
2013,03,25,01,22,6.20
2013,03,25,01,23,6.10
2013,03,25,01,24,6.10
2013,03,25,01,25,6.10
2013,03,25,01,26,6.00
2013,03,25,01,27,6.00
2013,03,25,01,28,6.00
2013,03,25,01,29,6.00
2013,03,25,01,30,5.90
2013,03,25,01,31,5.90
2013,03,25,01,32,5.90
2013,03,25,01,33,5.80
2013,03,25,01,34,5.80
2013,03,25,01,35,5.80
2013,03,25,01,36,5.80
2013,03,25,01,37,5.70
2013,03,25,01,38,5.70
2013,03,25,01,39,5.70
2013,03,25,01,40,5.70
2013,03,25,01,41,5.70
2013,03,25,01,42,5.70
2013,03,25,01,43,5.70
2013,03,25,01,44,5.70
2013,03,25,01,45,5.70
2013,03,25,01,46,5.70
2013,03,25,01,47,5.60
2013,03,25,01,48,5.60
2013,03,25,01,49,5.60
2013,03,25,01,50,5.60
2013,03,25,01,51,5.60
2013,03,25,01,52,5.60
2013,03,25,01,53,5.60
2013,03,25,01,54,5.60
2013,03,25,01,55,5.50
2013,03,25,01,56,5.50
2013,03,25,01,57,5.50
2013,03,25,01,58,5.50
2013,03,25,01,59,5.50
2013,03,25,02,00,5.50
2013,03,25,02,01,5.50
2013,03,25,02,02,5.40
2013,03,25,02,03,5.40
2013,03,25,02,04,5.40
2013,03,25,02,05,5.40
2013,03,25,02,06,5.40
2013,03,25,02,07,5.40
2013,03,25,02,08,5.40
2013,03,25,02,09,5.40
2013,03,25,02,10,5.40
2013,03,25,02,11,5.40
2013,03,25,02,12,5.40
2013,03,25,02,13,5.40
2013,03,25,02,14,5.40
2013,03,25,02,15,5.40
2013,03,25,02,16,5.40
2013,03,25,02,17,5.30
2013,03,25,02,18,5.30
2013,03,25,02,19,5.30
2013,03,25,02,20,5.30
2013,03,25,02,21,5.30
2013,03,25,02,22,5.30
2013,03,25,02,23,5.30
2013,03,25,02,24,5.30
2013,03,25,02,25,5.30
2013,03,25,02,26,5.30
2013,03,25,02,27,5.30
2013,03,25,02,28,5.30
2013,03,25,02,29,5.30
2013,03,25,02,30,5.20
2013,03,25,02,31,5.20
2013,03,25,02,32,5.20
2013,03,25,02,33,5.20
2013,03,25,02,34,5.10
2013,03,25,02,35,5.10
2013,03,25,02,36,5.10
2013,03,25,02,37,5.10
2013,03,25,02,38,5.10
2013,03,25,02,39,5.10
2013,03,25,02,40,5.10
2013,03,25,02,41,5.10
2013,03,25,02,42,5.10
2013,03,25,02,43,5.10
2013,03,25,02,44,5.10
2013,03,25,02,45,5.10
2013,03,25,02,46,5.10
2013,03,25,02,47,5.10
2013,03,25,02,48,5.10
2013,03,25,02,49,5.10
2013,03,25,02,50,5.10
2013,03,25,02,51,5.10
2013,03,25,02,52,5.10
2013,03,25,02,53,5.10
2013,03,25,02,54,5.10
2013,03,25,02,55,5.10
2013,03,25,02,56,5.10
2013,03,25,02,57,5.10
2013,03,25,02,58,5.10
2013,03,25,02,59,5.10
2013,03,25,03,00,5.00
2013,03,25,03,01,4.90
2013,03,25,03,02,4.90
2013,03,25,03,03,4.90
2013,03,25,03,04,4.90
2013,03,25,03,05,4.90
2013,03,25,03,06,4.90
2013,03,25,03,07,4.90
2013,03,25,03,08,4.90
2013,03,25,03,09,4.90
2013,03,25,03,10,4.90
2013,03,25,03,11,4.90
2013,03,25,03,12,4.90
2013,03,25,03,13,4.90
2013,03,25,03,14,4.90
2013,03,25,03,15,4.90
2013,03,25,03,16,5.00
2013,03,25,03,17,5.10
2013,03,25,03,18,5.10
2013,03,25,03,19,5.10
2013,03,25,03,20,5.10
2013,03,25,03,21,5.10
2013,03,25,03,22,5.10
2013,03,25,03,23,5.10
2013,03,25,03,24,5.10
2013,03,25,03,25,5.20
2013,03,25,03,26,5.20
2013,03,25,03,27,5.30
2013,03,25,03,28,5.30
2013,03,25,03,29,5.30
2013,03,25,03,30,5.30
2013,03,25,03,31,5.30
2013,03,25,03,32,5.30
2013,03,25,03,33,5.40
2013,03,25,03,34,5.40
2013,03,25,03,35,5.40
2013,03,25,03,36,5.50
2013,03,25,03,37,5.50
2013,03,25,03,38,5.50
2013,03,25,03,39,5.50
2013,03,25,03,40,5.50
2013,03,25,03,41,5.50
2013,03,25,03,42,5.50
2013,03,25,03,43,5.60
2013,03,25,03,44,5.60
2013,03,25,03,45,5.60
2013,03,25,03,46,5.60
2013,03,25,03,47,5.60
2013,03,25,03,48,5.60
2013,03,25,03,49,5.60
2013,03,25,03,50,5.60
2013,03,25,03,51,5.60
2013,03,25,03,52,5.60
2013,03,25,03,53,5.60
2013,03,25,03,54,5.60
2013,03,25,03,55,5.60
2013,03,25,03,56,5.60
2013,03,25,03,57,5.60
2013,03,25,03,58,5.60
2013,03,25,03,59,5.60
2013,03,25,04,00,5.50
2013,03,25,04,01,5.50
2013,03,25,04,02,5.50
2013,03,25,04,03,5.50
2013,03,25,04,04,5.50
2013,03,25,04,05,5.60
2013,03,25,04,06,5.60
2013,03,25,04,07,5.60
2013,03,25,04,08,5.60
2013,03,25,04,09,5.70
2013,03,25,04,10,5.70
2013,03,25,04,11,5.70
2013,03,25,04,12,5.70
2013,03,25,04,13,5.70
2013,03,25,04,14,5.70
2013,03,25,04,15,5.70
2013,03,25,04,16,5.70
2013,03,25,04,17,5.80
2013,03,25,04,18,5.80
2013,03,25,04,19,5.90
2013,03,25,04,20,5.90
2013,03,25,04,21,6.00
2013,03,25,04,22,6.00
2013,03,25,04,23,6.00
2013,03,25,04,24,6.10
2013,03,25,04,25,6.10
2013,03,25,04,26,6.10
2013,03,25,04,27,6.10
2013,03,25,04,28,6.10
2013,03,25,04,29,6.10
2013,03,25,04,30,6.20
2013,03,25,04,31,6.20
2013,03,25,04,32,6.20
2013,03,25,04,33,6.20
2013,03,25,04,34,6.20
2013,03,25,04,35,6.10
2013,03,25,04,36,6.10
2013,03,25,04,37,6.10
2013,03,25,04,38,6.10
2013,03,25,04,39,6.10
2013,03,25,04,40,6.10
2013,03,25,04,41,6.10
2013,03,25,04,42,6.10
2013,03,25,04,43,6.00
2013,03,25,04,44,6.00
2013,03,25,04,45,6.00
2013,03,25,04,46,6.00
2013,03,25,04,47,6.00
2013,03,25,04,48,6.00
2013,03,25,04,49,6.00
2013,03,25,04,50,6.10
2013,03,25,04,51,6.10
2013,03,25,04,52,6.10
2013,03,25,04,53,6.10
2013,03,25,04,54,6.10
2013,03,25,04,55,6.10
2013,03,25,04,56,6.10
2013,03,25,04,57,6.00
2013,03,25,04,58,6.00
2013,03,25,04,59,6.00
2013,03,25,05,00,6.00
2013,03,25,05,01,6.00
2013,03,25,05,02,5.90
2013,03,25,05,03,5.90
2013,03,25,05,04,5.90
2013,03,25,05,05,5.80
2013,03,25,05,06,5.80
2013,03,25,05,07,5.80
2013,03,25,05,08,5.70
2013,03,25,05,09,5.70
2013,03,25,05,10,5.70
2013,03,25,05,11,5.70
2013,03,25,05,12,5.60
2013,03,25,05,13,5.60
2013,03,25,05,14,5.60
2013,03,25,05,15,5.50
2013,03,25,05,16,5.50
2013,03,25,05,17,5.40
2013,03,25,05,18,5.40
2013,03,25,05,19,5.40
2013,03,25,05,20,5.40
2013,03,25,05,21,5.40
2013,03,25,05,22,5.40
2013,03,25,05,23,5.40
2013,03,25,05,24,5.40
2013,03,25,05,25,5.30
2013,03,25,05,26,5.30
2013,03,25,05,27,5.30
2013,03,25,05,28,5.30
2013,03,25,05,29,5.30
2013,03,25,05,30,5.30
2013,03,25,05,31,5.20
2013,03,25,05,32,5.20
2013,03,25,05,33,5.20
2013,03,25,05,34,5.20
2013,03,25,05,35,5.30
2013,03,25,05,36,5.30
2013,03,25,05,37,5.20
2013,03,25,05,38,5.20
2013,03,25,05,39,5.20
2013,03,25,05,40,5.30
2013,03,25,05,41,5.30
2013,03,25,05,42,5.20
2013,03,25,05,43,5.20
2013,03,25,05,44,5.20
2013,03,25,05,45,5.20
2013,03,25,05,46,5.20
2013,03,25,05,47,5.20
2013,03,25,05,48,5.20
2013,03,25,05,49,5.10
2013,03,25,05,50,5.10
2013,03,25,05,51,5.10
2013,03,25,05,52,5.10
2013,03,25,05,53,5.00
2013,03,25,05,54,4.90
2013,03,25,05,55,4.90
2013,03,25,05,56,4.90
2013,03,25,05,57,4.90
2013,03,25,05,58,4.90
2013,03,25,05,59,4.80
2013,03,25,06,00,4.80
2013,03,25,06,01,4.70
2013,03,25,06,02,4.70
2013,03,25,06,03,4.70
2013,03,25,06,04,4.60
2013,03,25,06,05,4.60
2013,03,25,06,06,4.50
2013,03,25,06,07,4.50
2013,03,25,06,08,4.50
2013,03,25,06,09,4.40
2013,03,25,06,10,4.40
2013,03,25,06,11,4.40
2013,03,25,06,12,4.30
2013,03,25,06,13,4.30
2013,03,25,06,14,4.20
2013,03,25,06,15,4.20
2013,03,25,06,16,4.20
2013,03,25,06,17,4.20
2013,03,25,06,18,4.20
2013,03,25,06,19,4.10
2013,03,25,06,20,4.10
2013,03,25,06,21,4.10
2013,03,25,06,22,4.10
2013,03,25,06,23,4.00
2013,03,25,06,24,4.00
2013,03,25,06,25,4.00
2013,03,25,06,26,3.90
2013,03,25,06,27,3.90
2013,03,25,06,28,3.80
2013,03,25,06,29,3.80
2013,03,25,06,30,3.80
2013,03,25,06,31,3.80
2013,03,25,06,32,3.70
2013,03,25,06,33,3.70
2013,03,25,06,34,3.70
2013,03,25,06,35,3.70
2013,03,25,06,36,3.80
2013,03,25,06,37,3.80
2013,03,25,06,38,3.80
2013,03,25,06,39,3.80
2013,03,25,06,40,3.80
2013,03,25,06,41,3.80
2013,03,25,06,42,3.90
2013,03,25,06,43,3.90
2013,03,25,06,44,3.90
2013,03,25,06,45,3.90
2013,03,25,06,46,3.90
2013,03,25,06,47,3.80
2013,03,25,06,48,3.80
2013,03,25,06,49,3.80
2013,03,25,06,50,3.80
2013,03,25,06,51,3.80
2013,03,25,06,52,3.80
2013,03,25,06,53,3.80
2013,03,25,06,54,3.70
2013,03,25,06,55,3.70
2013,03,25,06,56,3.70
2013,03,25,06,57,3.70
2013,03,25,06,58,3.70
2013,03,25,06,59,3.80
2013,03,25,07,00,3.80
2013,03,25,07,01,3.80
2013,03,25,07,02,3.80
2013,03,25,07,03,3.80
2013,03,25,07,04,3.80
2013,03,25,07,05,3.80
2013,03,25,07,06,3.80
2013,03,25,07,07,3.80
2013,03,25,07,08,3.90
2013,03,25,07,09,3.90
2013,03,25,07,10,3.90
2013,03,25,07,11,3.90
2013,03,25,07,12,3.90
2013,03,25,07,13,3.90
2013,03,25,07,14,3.90
2013,03,25,07,15,3.80
2013,03,25,07,16,3.80
2013,03,25,07,17,3.90
2013,03,25,07,18,3.90
2013,03,25,07,19,3.90
2013,03,25,07,20,3.90
2013,03,25,07,21,4.00
2013,03,25,07,22,4.00
2013,03,25,07,23,4.00
2013,03,25,07,24,4.00
2013,03,25,07,25,4.00
2013,03,25,07,26,4.00
2013,03,25,07,27,4.10
2013,03,25,07,28,4.10
2013,03,25,07,29,4.10
2013,03,25,07,30,4.10
2013,03,25,07,31,4.20
2013,03,25,07,32,4.20
2013,03,25,07,33,4.20
2013,03,25,07,34,4.20
2013,03,25,07,35,4.20
2013,03,25,07,36,4.20
2013,03,25,07,37,4.20
2013,03,25,07,38,4.20
2013,03,25,07,39,4.20
2013,03,25,07,40,4.30
2013,03,25,07,41,4.30
2013,03,25,07,42,4.30
2013,03,25,07,43,4.30
2013,03,25,07,44,4.40
2013,03,25,07,45,4.40
2013,03,25,07,46,4.40
2013,03,25,07,47,4.40
2013,03,25,07,48,4.40
2013,03,25,07,49,4.50
2013,03,25,07,50,4.50
2013,03,25,07,51,4.50
2013,03,25,07,52,4.60
2013,03,25,07,53,4.60
2013,03,25,07,54,4.60
2013,03,25,07,55,4.60
2013,03,25,07,56,4.70
2013,03,25,07,57,4.70
2013,03,25,07,58,4.70
2013,03,25,07,59,4.80
2013,03,25,08,00,4.80
2013,03,25,08,01,4.90
2013,03,25,08,02,4.90
2013,03,25,08,03,4.90
2013,03,25,08,04,4.90
2013,03,25,08,05,4.90
2013,03,25,08,06,5.00
2013,03,25,08,07,5.10
2013,03,25,08,08,5.10
2013,03,25,08,09,5.10
2013,03,25,08,10,5.10
2013,03,25,08,11,5.20
2013,03,25,08,12,5.20
2013,03,25,08,13,5.30
2013,03,25,08,14,5.30
2013,03,25,08,15,5.30
2013,03,25,08,16,5.30
2013,03,25,08,17,5.50
2013,03,25,08,18,5.50
2013,03,25,08,19,5.60
2013,03,25,08,20,5.70
2013,03,25,08,21,5.80
2013,03,25,08,22,5.80
2013,03,25,08,23,5.90
2013,03,25,08,24,5.90
2013,03,25,08,25,6.00
2013,03,25,08,26,6.00
2013,03,25,08,27,6.10
2013,03,25,08,28,6.10
2013,03,25,08,29,6.20
2013,03,25,08,30,6.20
2013,03,25,08,31,6.20
2013,03,25,08,32,6.20
2013,03,25,08,33,6.20
2013,03,25,08,34,6.20
2013,03,25,08,35,6.30
2013,03,25,08,36,6.40
2013,03,25,08,37,6.50
2013,03,25,08,38,6.60
2013,03,25,08,39,6.60
2013,03,25,08,40,6.70
2013,03,25,08,41,6.80
2013,03,25,08,42,6.80
2013,03,25,08,43,6.80
2013,03,25,08,44,6.80
2013,03,25,08,45,6.90
2013,03,25,08,46,6.90
2013,03,25,08,47,6.90
2013,03,25,08,48,6.90
2013,03,25,08,49,6.90
2013,03,25,08,50,7.00
2013,03,25,08,51,7.00
2013,03,25,08,52,7.00
2013,03,25,08,53,7.00
2013,03,25,08,54,7.00
2013,03,25,08,55,7.00
2013,03,25,08,56,7.10
2013,03,25,08,57,7.10
2013,03,25,08,58,7.10
2013,03,25,08,59,7.20
2013,03,25,09,00,7.20
2013,03,25,09,01,7.20
2013,03,25,09,02,7.30
2013,03,25,09,03,7.30
2013,03,25,09,04,7.30
2013,03,25,09,05,7.30
2013,03,25,09,06,7.30
2013,03,25,09,07,7.30
2013,03,25,09,08,7.30
2013,03,25,09,09,7.30
2013,03,25,09,10,7.40
2013,03,25,09,11,7.40
2013,03,25,09,12,7.40
2013,03,25,09,13,7.40
2013,03,25,09,14,7.40
2013,03,25,09,15,7.50
2013,03,25,09,16,7.50
2013,03,25,09,17,7.50
2013,03,25,09,18,7.60
2013,03,25,09,19,7.60
2013,03,25,09,20,7.60
2013,03,25,09,21,7.70
2013,03,25,09,22,7.70
2013,03,25,09,23,7.80
2013,03,25,09,24,7.80
2013,03,25,09,25,7.80
2013,03,25,09,26,7.80
2013,03,25,09,27,7.80
2013,03,25,09,28,7.80
2013,03,25,09,29,7.90
2013,03,25,09,30,7.90
2013,03,25,09,31,7.90
2013,03,25,09,32,7.90
2013,03,25,09,33,7.90
2013,03,25,09,34,7.90
2013,03,25,09,35,8.00
2013,03,25,09,36,8.00
2013,03,25,09,37,8.10
2013,03,25,09,38,8.20
2013,03,25,09,39,8.20
2013,03,25,09,40,8.20
2013,03,25,09,41,8.20
2013,03,25,09,42,8.20
2013,03,25,09,43,8.20
2013,03,25,09,44,8.20
2013,03,25,09,45,8.20
2013,03,25,09,46,8.20
2013,03,25,09,47,8.30
2013,03,25,09,48,8.30
2013,03,25,09,49,8.40
2013,03,25,09,50,8.50
2013,03,25,09,51,8.60
2013,03,25,09,52,8.60
2013,03,25,09,53,8.70
2013,03,25,09,54,8.70
2013,03,25,09,55,8.80
2013,03,25,09,56,8.90
2013,03,25,09,57,8.90
2013,03,25,09,58,8.90
2013,03,25,09,59,9.00
2013,03,25,10,00,9.00
2013,03,25,10,01,9.00
2013,03,25,10,02,9.00
2013,03,25,10,03,9.10
2013,03,25,10,04,9.10
2013,03,25,10,05,9.20
2013,03,25,10,06,9.20
2013,03,25,10,07,9.20
2013,03,25,10,08,9.20
2013,03,25,10,09,9.20
2013,03,25,10,10,9.20
2013,03,25,10,11,9.20
2013,03,25,10,12,9.30
2013,03,25,10,13,9.20
2013,03,25,10,14,9.20
2013,03,25,10,15,9.20
2013,03,25,10,16,9.20
2013,03,25,10,17,9.20
2013,03,25,10,18,9.10
2013,03,25,10,19,9.10
2013,03,25,10,20,9.20
2013,03,25,10,21,9.20
2013,03,25,10,22,9.20
2013,03,25,10,23,9.20
2013,03,25,10,24,9.20
2013,03,25,10,25,9.20
2013,03,25,10,26,9.30
2013,03,25,10,27,9.30
2013,03,25,10,28,9.30
2013,03,25,10,29,9.30
2013,03,25,10,30,9.40
2013,03,25,10,31,9.50
2013,03,25,10,32,9.60
2013,03,25,10,33,9.70
2013,03,25,10,34,9.80
2013,03,25,10,35,9.90
2013,03,25,10,36,9.90
2013,03,25,10,37,9.90
2013,03,25,10,38,9.80
2013,03,25,10,39,9.90
2013,03,25,10,40,9.90
2013,03,25,10,41,9.90
2013,03,25,10,42,10.10
2013,03,25,10,43,10.10
2013,03,25,10,44,10.10
2013,03,25,10,45,10.10
2013,03,25,10,46,10.10
2013,03,25,10,47,10.10
2013,03,25,10,48,10.20
2013,03,25,10,49,10.20
2013,03,25,10,50,10.40
2013,03,25,10,51,10.40
2013,03,25,10,52,10.40
2013,03,25,10,53,10.40
2013,03,25,10,54,10.30
2013,03,25,10,55,10.20
2013,03,25,10,56,10.20
2013,03,25,10,57,10.20
2013,03,25,10,58,10.20
2013,03,25,10,59,10.30
2013,03,25,11,00,10.30
2013,03,25,11,01,10.30
2013,03,25,11,02,10.30
2013,03,25,11,03,10.30
2013,03,25,11,04,10.30
2013,03,25,11,05,10.40
2013,03,25,11,06,10.40
2013,03,25,11,07,10.40
2013,03,25,11,08,10.50
2013,03,25,11,09,10.60
2013,03,25,11,10,10.70
2013,03,25,11,11,10.70
2013,03,25,11,12,10.70
2013,03,25,11,13,10.70
2013,03,25,11,14,10.70
2013,03,25,11,15,10.70
2013,03,25,11,16,10.70
2013,03,25,11,17,10.80
2013,03,25,11,18,10.80
2013,03,25,11,19,10.80
2013,03,25,11,20,10.80
2013,03,25,11,21,10.80
2013,03,25,11,22,10.80
2013,03,25,11,23,10.70
2013,03,25,11,24,10.70
2013,03,25,11,25,10.60
2013,03,25,11,26,10.60
2013,03,25,11,27,10.60
2013,03,25,11,28,10.60
2013,03,25,11,29,10.60
2013,03,25,11,30,10.70
2013,03,25,11,31,10.60
2013,03,25,11,32,10.60
2013,03,25,11,33,10.60
2013,03,25,11,34,10.60
2013,03,25,11,35,10.60
2013,03,25,11,36,10.60
2013,03,25,11,37,10.60
2013,03,25,11,38,10.70
2013,03,25,11,39,10.70
2013,03,25,11,40,10.70
2013,03,25,11,41,10.70
2013,03,25,11,42,10.70
2013,03,25,11,43,10.80
2013,03,25,11,44,10.80
2013,03,25,11,45,10.80
2013,03,25,11,46,10.80
2013,03,25,11,47,10.80
2013,03,25,11,48,10.90
2013,03,25,11,49,11.00
2013,03,25,11,50,11.10
2013,03,25,11,51,11.10
2013,03,25,11,52,11.10
2013,03,25,11,53,11.20
2013,03,25,11,54,11.30
2013,03,25,11,55,11.30
2013,03,25,11,56,11.30
2013,03,25,11,57,11.40
2013,03,25,11,58,11.50
2013,03,25,11,59,11.60
2013,03,25,12,00,11.70
2013,03,25,12,01,11.70
2013,03,25,12,02,11.80
2013,03,25,12,03,11.80
2013,03,25,12,04,11.80
2013,03,25,12,05,11.80
2013,03,25,12,06,11.90
2013,03,25,12,07,12.00
2013,03,25,12,08,12.00
2013,03,25,12,09,12.10
2013,03,25,12,10,12.10
2013,03,25,12,11,12.00
2013,03,25,12,12,12.00
2013,03,25,12,13,12.00
2013,03,25,12,14,11.90
2013,03,25,12,15,11.90
2013,03,25,12,16,11.90
2013,03,25,12,17,11.80
2013,03,25,12,18,11.80
2013,03,25,12,19,11.90
2013,03,25,12,20,11.90
2013,03,25,12,21,11.90
2013,03,25,12,22,11.90
2013,03,25,12,23,11.90
2013,03,25,12,24,11.90
2013,03,25,12,25,11.90
2013,03,25,12,26,11.90
2013,03,25,12,27,11.90
2013,03,25,12,28,11.90
2013,03,25,12,29,11.90
2013,03,25,12,30,12.00
2013,03,25,12,31,12.00
2013,03,25,12,32,12.10
2013,03,25,12,33,12.20
2013,03,25,12,34,12.30
2013,03,25,12,35,12.40
2013,03,25,12,36,12.50
2013,03,25,12,37,12.60
2013,03,25,12,38,12.70
2013,03,25,12,39,12.80
2013,03,25,12,40,12.80
2013,03,25,12,41,12.80
2013,03,25,12,42,12.80
2013,03,25,12,43,12.80
2013,03,25,12,44,12.80
2013,03,25,12,45,12.80
2013,03,25,12,46,12.80
2013,03,25,12,47,12.80
2013,03,25,12,48,12.80
2013,03,25,12,49,12.80
2013,03,25,12,50,12.80
2013,03,25,12,51,12.70
2013,03,25,12,52,12.60
2013,03,25,12,53,12.50
2013,03,25,12,54,12.50
2013,03,25,12,55,12.50
2013,03,25,12,56,12.70
2013,03,25,12,57,12.80
2013,03,25,12,58,12.80
2013,03,25,12,59,12.80
2013,03,25,13,00,12.80
2013,03,25,13,01,12.80
2013,03,25,13,02,12.80
2013,03,25,13,03,12.80
2013,03,25,13,04,12.80
2013,03,25,13,05,12.90
2013,03,25,13,06,12.90
2013,03,25,13,07,13.00
2013,03,25,13,08,13.00
2013,03,25,13,09,13.10
2013,03,25,13,10,13.20
2013,03,25,13,11,13.10
2013,03,25,13,12,13.00
2013,03,25,13,13,13.00
2013,03,25,13,14,12.90
2013,03,25,13,15,12.80
2013,03,25,13,16,12.70
2013,03,25,13,17,12.70
2013,03,25,13,18,12.60
2013,03,25,13,19,12.60
2013,03,25,13,20,12.60
2013,03,25,13,21,12.60
2013,03,25,13,22,12.60
2013,03,25,13,23,12.60
2013,03,25,13,24,12.70
2013,03,25,13,25,12.70
2013,03,25,13,26,12.80
2013,03,25,13,27,12.90
2013,03,25,13,28,13.10
2013,03,25,13,29,13.10
2013,03,25,13,30,13.10
2013,03,25,13,31,13.10
2013,03,25,13,32,13.10
2013,03,25,13,33,13.20
2013,03,25,13,34,13.20
2013,03,25,13,35,13.20
2013,03,25,13,36,13.20
2013,03,25,13,37,13.30
2013,03,25,13,38,13.30
2013,03,25,13,39,13.20
2013,03,25,13,40,13.10
2013,03,25,13,41,13.00
2013,03,25,13,42,12.90
2013,03,25,13,43,12.80
2013,03,25,13,44,12.80
2013,03,25,13,45,12.80
2013,03,25,13,46,13.00
2013,03,25,13,47,13.10
2013,03,25,13,48,13.10
2013,03,25,13,49,13.20
2013,03,25,13,50,13.30
2013,03,25,13,51,13.40
2013,03,25,13,52,13.50
2013,03,25,13,53,13.50
2013,03,25,13,54,13.60
2013,03,25,13,55,13.60
2013,03,25,13,56,13.60
2013,03,25,13,57,13.60
2013,03,25,13,58,13.60
2013,03,25,13,59,13.50
2013,03,25,14,00,13.40
2013,03,25,14,01,13.30
2013,03,25,14,02,13.20
2013,03,25,14,03,13.20
2013,03,25,14,04,13.20
2013,03,25,14,05,13.20
2013,03,25,14,06,13.20
2013,03,25,14,07,13.30
2013,03,25,14,08,13.20
2013,03,25,14,09,13.20
2013,03,25,14,10,13.30
2013,03,25,14,11,13.30
2013,03,25,14,12,13.20
2013,03,25,14,13,13.20
2013,03,25,14,14,13.20
2013,03,25,14,15,13.20
2013,03,25,14,16,13.20
2013,03,25,14,17,13.30
2013,03,25,14,18,13.30
2013,03,25,14,19,13.30
2013,03,25,14,20,13.30
2013,03,25,14,21,13.30
2013,03,25,14,22,13.50
2013,03,25,14,23,13.50
2013,03,25,14,24,13.60
2013,03,25,14,25,13.50
2013,03,25,14,26,13.50
2013,03,25,14,27,13.60
2013,03,25,14,28,13.70
2013,03,25,14,29,13.60
2013,03,25,14,30,13.60
2013,03,25,14,31,13.60
2013,03,25,14,32,13.60
2013,03,25,14,33,13.60
2013,03,25,14,34,13.60
2013,03,25,14,35,13.60
2013,03,25,14,36,13.60
2013,03,25,14,37,13.70
2013,03,25,14,38,13.60
2013,03,25,14,39,13.60
2013,03,25,14,40,13.60
2013,03,25,14,41,13.70
2013,03,25,14,42,13.70
2013,03,25,14,43,13.70
2013,03,25,14,44,13.70
2013,03,25,14,45,13.70
2013,03,25,14,46,13.70
2013,03,25,14,47,13.70
2013,03,25,14,48,13.70
2013,03,25,14,49,13.80
2013,03,25,14,50,13.90
2013,03,25,14,51,13.90
2013,03,25,14,52,13.90
2013,03,25,14,53,13.80
2013,03,25,14,54,13.70
2013,03,25,14,55,13.80
2013,03,25,14,56,13.70
2013,03,25,14,57,13.70
2013,03,25,14,58,13.70
2013,03,25,14,59,13.70
2013,03,25,15,00,13.70
2013,03,25,15,01,13.70
2013,03,25,15,02,13.70
2013,03,25,15,03,13.70
2013,03,25,15,04,13.70
2013,03,25,15,05,13.70
2013,03,25,15,06,13.70
2013,03,25,15,07,13.70
2013,03,25,15,08,13.70
2013,03,25,15,09,13.70
2013,03,25,15,10,13.70
2013,03,25,15,11,13.90
2013,03,25,15,12,14.00
2013,03,25,15,13,14.10
2013,03,25,15,14,14.20
2013,03,25,15,15,14.20
2013,03,25,15,16,14.10
2013,03,25,15,17,14.10
2013,03,25,15,18,14.10
2013,03,25,15,19,14.10
2013,03,25,15,20,14.10
2013,03,25,15,21,14.20
2013,03,25,15,22,14.20
2013,03,25,15,23,14.20
2013,03,25,15,24,14.20
2013,03,25,15,25,14.20
2013,03,25,15,26,14.10
2013,03,25,15,27,14.10
2013,03,25,15,28,14.10
2013,03,25,15,29,14.10
2013,03,25,15,30,14.10
2013,03,25,15,31,14.10
2013,03,25,15,32,14.10
2013,03,25,15,33,14.10
2013,03,25,15,34,14.20
2013,03,25,15,35,14.20
2013,03,25,15,36,14.20
2013,03,25,15,37,14.30
2013,03,25,15,38,14.40
2013,03,25,15,39,14.50
2013,03,25,15,40,14.50
2013,03,25,15,41,14.50
2013,03,25,15,42,14.50
2013,03,25,15,43,14.50
2013,03,25,15,44,14.40
2013,03,25,15,45,14.50
2013,03,25,15,46,14.50
2013,03,25,15,47,14.50
2013,03,25,15,48,14.40
2013,03,25,15,49,14.30
2013,03,25,15,50,14.30
2013,03,25,15,51,14.30
2013,03,25,15,52,14.30
2013,03,25,15,53,14.20
2013,03,25,15,54,14.30
2013,03,25,15,55,14.40
2013,03,25,15,56,14.40
2013,03,25,15,57,14.40
2013,03,25,15,58,14.40
2013,03,25,15,59,14.30
2013,03,25,16,00,14.30
2013,03,25,16,01,14.40
2013,03,25,16,02,14.50
2013,03,25,16,03,14.60
2013,03,25,16,04,14.70
2013,03,25,16,05,14.60
2013,03,25,16,06,14.60
2013,03,25,16,07,14.50
2013,03,25,16,08,14.40
2013,03,25,16,09,14.40
2013,03,25,16,10,14.40
2013,03,25,16,11,14.40
2013,03,25,16,12,14.30
2013,03,25,16,13,14.30
2013,03,25,16,14,14.30
2013,03,25,16,15,14.20
2013,03,25,16,16,14.20
2013,03,25,16,17,14.20
2013,03,25,16,18,14.10
2013,03,25,16,19,14.10
2013,03,25,16,20,14.20
2013,03,25,16,21,14.20
2013,03,25,16,22,14.20
2013,03,25,16,23,14.20
2013,03,25,16,24,14.20
2013,03,25,16,25,14.30
2013,03,25,16,26,14.40
2013,03,25,16,27,14.50
2013,03,25,16,28,14.50
2013,03,25,16,29,14.60
2013,03,25,16,30,14.60
2013,03,25,16,31,14.60
2013,03,25,16,32,14.60
2013,03,25,16,33,14.60
2013,03,25,16,34,14.60
2013,03,25,16,35,14.60
2013,03,25,16,36,14.60
2013,03,25,16,37,14.50
2013,03,25,16,38,14.40
2013,03,25,16,39,14.30
2013,03,25,16,40,14.20
2013,03,25,16,41,14.20
2013,03,25,16,42,14.30
2013,03,25,16,43,14.30
2013,03,25,16,44,14.40
2013,03,25,16,45,14.40
2013,03,25,16,46,14.40
2013,03,25,16,47,14.40
2013,03,25,16,48,14.30
2013,03,25,16,49,14.30
2013,03,25,16,50,14.30
2013,03,25,16,51,14.30
2013,03,25,16,52,14.20
2013,03,25,16,53,14.20
2013,03,25,16,54,14.20
2013,03,25,16,55,14.20
2013,03,25,16,56,14.20
2013,03,25,16,57,14.20
2013,03,25,16,58,14.30
2013,03,25,16,59,14.30
2013,03,25,17,00,14.30
2013,03,25,17,01,14.30
2013,03,25,17,02,14.20
2013,03,25,17,03,14.20
2013,03,25,17,04,14.10
2013,03,25,17,05,14.10
2013,03,25,17,06,14.10
2013,03,25,17,07,14.10
2013,03,25,17,08,14.10
2013,03,25,17,09,14.10
2013,03,25,17,10,14.10
2013,03,25,17,11,14.10
2013,03,25,17,12,14.10
2013,03,25,17,13,14.10
2013,03,25,17,14,14.20
2013,03,25,17,15,14.20
2013,03,25,17,16,14.20
2013,03,25,17,17,14.20
2013,03,25,17,18,14.10
2013,03,25,17,19,14.10
2013,03,25,17,20,14.10
2013,03,25,17,21,14.10
2013,03,25,17,22,14.10
2013,03,25,17,23,14.10
2013,03,25,17,24,14.00
2013,03,25,17,25,14.00
2013,03,25,17,26,13.90
2013,03,25,17,27,13.90
2013,03,25,17,28,13.90
2013,03,25,17,29,13.90
2013,03,25,17,30,13.90
2013,03,25,17,31,13.90
2013,03,25,17,32,13.90
2013,03,25,17,33,13.90
2013,03,25,17,34,13.90
2013,03,25,17,35,13.90
2013,03,25,17,36,14.00
2013,03,25,17,37,14.00
2013,03,25,17,38,14.00
2013,03,25,17,39,13.90
2013,03,25,17,40,14.00
2013,03,25,17,41,14.00
2013,03,25,17,42,14.00
2013,03,25,17,43,14.00
2013,03,25,17,44,14.00
2013,03,25,17,45,14.00
2013,03,25,17,46,13.90
2013,03,25,17,47,13.90